Location: *
(46.4000°N, 12.6667°E)
Time: 11:08:17
(UTC+00:00)

COSMOS 2406 - Pass Details

Date: 09 April 2020
Orbit: 842 x 865 km, 71.0° (Epoch: 25 May)

Event Time Altitude Azimuth Distance (km) Brightness Sun altitude
Exits shadow 19:13:12 21° 117° (ESE) 1,815 4.3 -14.3°
Maximum altitude 19:14:18 22° 101° (E) 1,761 4.3 -14.5°
Drops below altitude 10° 19:18:35 10° 52° (NE) 2,485 5.4 -15.1°
Sets 19:21:32 0° 38° (NE) 3,430 6.3 -15.6°
